El Dorado, AR

8:55 PM CST on January 23, 2018 (GMT -0600)
South Arkansas Regional At Goodwin

Weather History for KELD - February, 2013

Change the Weather History Date:

Saturday, February 16, 2013

  Actual Average Record
Temperature  
Mean Temperature 39 °F 48 °F  
Max Temperature 49 °F 59 °F 85 °F (1927)
Min Temperature 28 °F 37 °F 20 °F (1991)
Degree Days  
Heating Degree Days 26 17  
Month to date heating degree days 258 300  
Since 1 July heating degree days 1813 2043  
Cooling Degree Days 0 0  
Month to date cooling degree days 0 0  
Year to date cooling degree days 6 2  
Moisture  
Dew Point 20 °F    
Average Humidity 50    
Maximum Humidity 78    
Minimum Humidity 21    
Precipitation  
Precipitation 0.00 in 0.17 in 2.06 in (2001)
Month to date precipitation 2.02 2.69  
Year to date precipitation 5.68 6.99  
Snow  
Snow 0.00 in - - ()
Month to date snowfall 0.0  
Since 1 July snowfall 0.1  
Snow Depth 0.00 in    
Sea Level Pressure  
Sea Level Pressure 30.30 in    
Wind  
Wind Speed 6 mph (WNW)    
Max Wind Speed 20 mph    
Max Gust Speed 29 mph    
Visibility 10 miles    
Events      
T = Trace of Precipitation, MM = Missing Value Source: NWS Daily Summary

Daily Weather History Graph

Daily Weather History Graph

Search for Another Location

Airport or City:

Trip Planner

Search our weather history database for the weather conditions in past years. The results will help you decide how hot, cold, wet, or windy it might be!

Date:

Astronomy

Feb. 16, 2013 Rise Set
Actual Time 6:53 AM CST 5:57 PM CST
Civil Twilight 6:28 AM CST 6:22 PM CST
Nautical Twilight 5:59 AM CST 6:51 PM CST
Astronomical Twilight 5:30 AM CST 7:20 PM CST
Moon 10:29 AM CST (2/16) No Moon Set
Length of Visible Light 11h 54m
Length of Day
11h 03m
Waxing Crescent, 39% of the Moon is Illuminated
Feb 16
Waxing Crescent
Feb 17
First Quarter
Feb 25
Full
Mar 4
Last Quarter
Mar 11
New

Hourly Weather History & Observations

Time (CST) Temp. Windchill Dew Point Humidity Pressure Visibility Wind Dir Wind Speed Gust Speed Precip Events Conditions
12:53 AM 35.1 °F 30.1 °F 24.1 °F 64% 30.30 in 10.0 mi NW 5.8 mph - N/A   Clear
1:53 AM 35.1 °F 29.3 °F 21.0 °F 57% 30.31 in 10.0 mi WNW 6.9 mph - N/A   Clear
2:53 AM 33.1 °F 26.1 °F 21.0 °F 61% 30.31 in 10.0 mi WNW 8.1 mph - N/A   Clear
3:53 AM 32.0 °F 27.5 °F 19.9 °F 61% 30.32 in 10.0 mi WNW 4.6 mph - N/A   Scattered Clouds
4:53 AM 32.0 °F 26.4 °F 19.0 °F 59% 30.32 in 10.0 mi WNW 5.8 mph - N/A   Mostly Cloudy
5:53 AM 32.0 °F 27.5 °F 19.9 °F 61% 30.32 in 10.0 mi WNW 4.6 mph - N/A   Overcast
6:53 AM 28.0 °F - 21.0 °F 75% 30.32 in 10.0 mi Calm Calm - N/A   Clear
7:53 AM 33.1 °F 30.0 °F 19.9 °F 59% 30.34 in 10.0 mi West 3.5 mph - N/A   Clear
8:53 AM 37.9 °F 32.1 °F 19.0 °F 47% 30.35 in 10.0 mi West 8.1 mph - N/A   Clear
9:53 AM 42.1 °F 36.1 °F 21.9 °F 45% 30.35 in 10.0 mi West 10.4 mph 16.1 mph N/A   Clear
10:53 AM 45.0 °F 38.5 °F 21.9 °F 40% 30.35 in 10.0 mi NW 13.8 mph 24.2 mph N/A   Partly Cloudy
11:53 AM 46.0 °F 38.8 °F 19.0 °F 34% 30.33 in 10.0 mi NW 18.4 mph 24.2 mph N/A   Clear
12:53 PM 48.0 °F - 17.1 °F 29% 30.31 in 10.0 mi WNW 11.5 mph 19.6 mph N/A   Clear
1:53 PM 48.0 °F - 14.0 °F 26% 30.28 in 10.0 mi WNW 15.0 mph 23.0 mph N/A   Clear
2:53 PM 48.0 °F - 14.0 °F 26% 30.27 in 10.0 mi NW 8.1 mph 20.7 mph N/A   Clear
3:53 PM 48.0 °F - 10.9 °F 22% 30.27 in 10.0 mi West 9.2 mph - N/A   Clear
4:53 PM 48.0 °F - 12.9 °F 24% 30.26 in 10.0 mi NW 11.5 mph - N/A   Clear
5:53 PM 42.1 °F 40.2 °F 16.0 °F 35% 30.26 in 10.0 mi WNW 3.5 mph - N/A   Clear
6:53 PM 35.1 °F - 23.0 °F 61% 30.27 in 10.0 mi Calm Calm - N/A   Clear
7:53 PM 33.1 °F - 25.0 °F 72% 30.27 in 10.0 mi Calm Calm - N/A   Clear
8:53 PM 30.9 °F - 24.1 °F 76% 30.26 in 10.0 mi Calm Calm - N/A   Clear
9:53 PM 30.0 °F - 24.1 °F 79% 30.28 in 10.0 mi Calm Calm - N/A   Clear
10:53 PM 28.9 °F - 21.9 °F 75% 30.28 in 10.0 mi Calm Calm - N/A   Clear
11:53 PM 28.9 °F - 23.0 °F 78% 30.27 in 10.0 mi Calm Calm - N/A   Clear